OAS417 MKJP-SKBO

Flight info

Callsign OAS417
Flight time N/A
Altitude 37000
Route HANCK UP406 AKPEK UQ121 ISVAT ISVAT5E
Aircraft B77W/H-SDE1E2E3FGHIJ2J3J4J5M1RWXY/LB1D1

Departure

Time 2026-04-30 21:44
Airport Norman Manley International Airport (MKJP)

Arrival

Time N/A
Airport El Dorado International Airport (SKBO)
Time Latitude Longitude Altitude Speed Heading
2026-04-30 21:17 17.93573 -76.78054 18 ft 0 kts 102°
2026-04-30 21:37 17.93574 -76.78059 18 ft 4 kts 108°
2026-04-30 21:37 17.93576 -76.78066 18 ft 3 kts 110°
2026-04-30 21:37 17.93592 -76.78101 22 ft 10 kts 131°
2026-04-30 21:38 17.93641 -76.78114 21 ft 0 kts 204°
2026-04-30 21:38 17.93639 -76.78115 21 ft 4 kts 204°
2026-04-30 21:39 17.93566 -76.78147 18 ft 13 kts 202°
2026-04-30 21:39 17.93522 -76.78183 19 ft 6 kts 255°
2026-04-30 21:39 17.93543 -76.78277 19 ft 17 kts 291°
2026-04-30 21:39 17.93587 -76.78389 18 ft 17 kts 292°
2026-04-30 21:40 17.93630 -76.78501 18 ft 17 kts 292°
2026-04-30 21:40 17.93673 -76.78613 18 ft 17 kts 292°
2026-04-30 21:40 17.93717 -76.78725 18 ft 17 kts 292°
2026-04-30 21:40 17.93761 -76.78839 18 ft 17 kts 292°
2026-04-30 21:41 17.93804 -76.78955 19 ft 17 kts 291°
2026-04-30 21:41 17.93848 -76.79071 19 ft 17 kts 293°
2026-04-30 21:41 17.93893 -76.79186 19 ft 17 kts 291°
2026-04-30 21:41 17.93937 -76.79302 19 ft 17 kts 291°
2026-04-30 21:42 17.93983 -76.79417 18 ft 17 kts 292°
2026-04-30 21:42 17.94027 -76.79531 18 ft 17 kts 292°
2026-04-30 21:42 17.94071 -76.79648 18 ft 17 kts 284°
2026-04-30 21:42 17.94094 -76.79769 18 ft 17 kts 277°
2026-04-30 21:43 17.94084 -76.79890 17 ft 17 kts 235°
2026-04-30 21:43 17.94024 -76.79920 17 ft 5 kts 161°
2026-04-30 21:43 17.94001 -76.79869 17 ft 18 kts 112°
2026-04-30 21:43 17.93822 -76.79415 19 ft 120 kts 111°
2026-04-30 21:44 17.93390 -76.78280 221 ft 200 kts 111°
2026-04-30 21:44 17.92785 -76.76973 1727 ft 196 kts 129°
2026-04-30 21:44 17.91704 -76.76053 2636 ft 211 kts 153°
2026-04-30 21:44 17.90183 -76.75681 2892 ft 242 kts 180°
2026-04-30 21:45 17.88514 -76.76193 3378 ft 262 kts 213°
2026-04-30 21:45 17.87176 -76.77501 4148 ft 265 kts 226°
2026-04-30 21:45 17.85903 -76.78920 5014 ft 266 kts 223°
2026-04-30 21:45 17.84373 -76.79999 5729 ft 267 kts 199°
2026-04-30 21:46 17.82585 -76.80617 6465 ft 274 kts 195°
2026-04-30 21:46 17.80741 -76.81208 7186 ft 281 kts 195°
2026-04-30 21:46 17.78855 -76.81811 7990 ft 285 kts 196°
2026-04-30 21:46 17.76944 -76.82426 8787 ft 290 kts 197°
2026-04-30 21:47 17.75006 -76.83052 9616 ft 293 kts 197°
2026-04-30 21:47 17.73040 -76.83689 10353 ft 300 kts 197°
2026-04-30 21:47 17.70981 -76.84360 10660 ft 323 kts 198°
2026-04-30 21:47 17.68746 -76.85090 10849 ft 349 kts 198°
2026-04-30 21:48 17.66343 -76.85875 11063 ft 373 kts 198°
2026-04-30 21:48 17.63825 -76.86699 11607 ft 384 kts 198°
2026-04-30 21:48 17.61251 -76.87540 12273 ft 391 kts 198°
2026-04-30 21:48 17.58630 -76.88397 13067 ft 396 kts 198°
2026-04-30 21:49 17.55992 -76.89259 13837 ft 400 kts 199°
2026-04-30 21:49 17.53324 -76.90132 14510 ft 404 kts 199°
2026-04-30 21:49 17.50620 -76.91016 15124 ft 410 kts 199°
2026-04-30 21:49 17.47881 -76.91911 16450 ft 412 kts 199°
2026-04-30 21:50 17.45146 -76.92804 17402 ft 412 kts 197°
2026-04-30 21:50 17.42398 -76.93701 18224 ft 415 kts 196°
2026-04-30 21:50 17.39608 -76.94611 18724 ft 426 kts 197°
2026-04-30 21:50 17.36713 -76.95556 18934 ft 447 kts 198°
2026-04-30 21:51 17.33666 -76.96551 19064 ft 469 kts 198°
2026-04-30 21:51 17.30490 -76.97587 19291 ft 487 kts 198°
2026-04-30 21:51 17.27216 -76.98654 19727 ft 498 kts 198°
2026-04-30 21:51 17.23878 -76.99742 20308 ft 505 kts 198°
2026-04-30 21:52 17.20512 -77.00839 20973 ft 508 kts 198°
2026-04-30 21:52 17.17127 -77.01943 21670 ft 511 kts 198°
2026-04-30 21:52 17.13722 -77.03053 22313 ft 515 kts 198°
2026-04-30 21:52 17.10291 -77.04172 22895 ft 519 kts 198°
2026-04-30 21:53 17.06828 -77.05300 23472 ft 523 kts 198°
2026-04-30 21:53 17.03334 -77.06440 24025 ft 527 kts 198°
2026-04-30 21:53 16.99816 -77.07587 24564 ft 531 kts 198°
2026-04-30 21:53 16.96283 -77.08738 25099 ft 535 kts 198°
2026-04-30 21:54 16.92716 -77.09901 25606 ft 538 kts 198°
2026-04-30 21:54 16.89126 -77.11071 26100 ft 542 kts 198°
2026-04-30 21:54 16.85525 -77.12245 26573 ft 545 kts 198°
2026-04-30 21:54 16.81891 -77.13430 27025 ft 548 kts 198°
2026-04-30 21:55 16.78237 -77.14621 27459 ft 552 kts 198°
2026-04-30 21:55 16.74559 -77.15819 27894 ft 555 kts 198°
2026-04-30 21:55 16.70872 -77.17021 28302 ft 558 kts 198°
2026-04-30 21:55 16.67191 -77.18220 28679 ft 561 kts 198°
2026-04-30 21:56 16.65607 -77.18736 28831 ft 562 kts 198°
2026-04-30 21:56 16.61862 -77.19956 29184 ft 565 kts 198°
2026-04-30 21:56 16.58099 -77.21182 29552 ft 566 kts 198°
2026-04-30 21:56 16.54353 -77.22402 30026 ft 565 kts 198°
2026-04-30 21:57 16.50604 -77.23623 30517 ft 563 kts 198°
2026-04-30 21:57 16.46863 -77.24841 31019 ft 561 kts 198°
2026-04-30 21:57 16.43144 -77.26051 31462 ft 560 kts 198°
2026-04-30 21:57 16.39429 -77.27260 31870 ft 560 kts 198°
2026-04-30 21:58 16.35711 -77.28470 32267 ft 559 kts 198°
2026-04-30 21:58 16.32003 -77.29676 32671 ft 558 kts 198°
2026-04-30 21:58 16.28303 -77.30879 33074 ft 557 kts 198°
2026-04-30 21:58 16.24603 -77.32082 33465 ft 555 kts 198°
2026-04-30 21:59 16.20925 -77.33277 33846 ft 554 kts 198°
2026-04-30 21:59 16.17243 -77.34473 34226 ft 553 kts 198°
2026-04-30 21:59 16.13578 -77.35664 34583 ft 552 kts 198°
2026-04-30 22:00 16.06267 -77.38038 35247 ft 550 kts 198°
2026-04-30 22:00 15.98969 -77.40408 35850 ft 548 kts 198°
2026-04-30 22:00 15.95382 -77.41571 36129 ft 548 kts 198°
2026-04-30 22:01 15.91749 -77.42750 36386 ft 548 kts 198°
2026-04-30 22:01 15.88103 -77.43933 36619 ft 548 kts 198°
2026-04-30 22:01 15.84464 -77.45113 36845 ft 548 kts 198°
2026-04-30 22:01 15.80820 -77.46295 36941 ft 551 kts 198°
2026-04-30 22:02 15.73363 -77.48135 37001 ft 552 kts 182°
2026-04-30 22:02 15.65782 -77.47712 37008 ft 544 kts 165°
2026-04-30 22:03 15.62143 -77.46703 36998 ft 539 kts 154°
2026-04-30 22:03 15.58667 -77.45228 37016 ft 539 kts 151°
2026-04-30 22:03 15.51754 -77.42103 37012 ft 545 kts 151°
2026-04-30 22:04 15.44727 -77.38991 37008 ft 552 kts 155°
2026-04-30 22:05 15.33991 -77.34400 37012 ft 561 kts 155°
2026-04-30 22:05 15.26740 -77.31312 37010 ft 566 kts 155°
2026-04-30 22:06 15.19432 -77.28192 37008 ft 570 kts 155°
2026-04-30 22:06 15.08387 -77.23476 37005 ft 574 kts 155°
2026-04-30 22:07 15.00953 -77.20412 37004 ft 578 kts 159°
2026-04-30 22:07 14.93132 -77.18354 37007 ft 581 kts 168°
2026-04-30 22:08 14.85168 -77.16840 37005 ft 582 kts 169°
2026-04-30 22:08 14.77192 -77.15309 37001 ft 583 kts 168°
2026-04-30 22:09 14.69233 -77.13724 37001 ft 583 kts 168°
2026-04-30 22:09 14.61265 -77.12114 37000 ft 583 kts 168°
2026-04-30 22:10 14.53310 -77.10508 37003 ft 582 kts 168°
2026-04-30 22:10 14.45362 -77.08912 37001 ft 582 kts 168°
2026-04-30 22:11 14.33447 -77.06524 37000 ft 581 kts 168°
2026-04-30 22:12 14.25525 -77.04937 37002 ft 580 kts 168°
2026-04-30 22:12 14.17594 -77.03349 37000 ft 580 kts 168°
2026-04-30 22:13 14.09678 -77.01765 37001 ft 579 kts 168°
2026-04-30 22:13 14.01766 -77.00183 37001 ft 579 kts 168°
2026-04-30 22:14 13.93850 -76.98602 37001 ft 579 kts 168°
2026-04-30 22:14 13.85992 -76.97033 37001 ft 579 kts 168°
2026-04-30 22:15 13.78088 -76.95456 37001 ft 579 kts 168°
2026-04-30 22:15 13.70179 -76.93880 37001 ft 579 kts 168°
2026-04-30 22:16 13.62269 -76.92304 37001 ft 579 kts 168°
2026-04-30 22:17 13.46439 -76.89153 37001 ft 579 kts 168°
2026-04-30 22:17 13.34560 -76.86792 37002 ft 580 kts 168°
2026-04-30 22:18 13.24018 -76.84698 37001 ft 580 kts 168°
2026-04-30 22:19 13.12133 -76.82340 37002 ft 580 kts 168°
2026-04-30 22:20 13.00240 -76.79982 37001 ft 580 kts 168°
2026-04-30 22:20 12.88347 -76.77627 37000 ft 580 kts 168°
2026-04-30 22:21 12.80426 -76.76059 37001 ft 580 kts 168°
2026-04-30 22:21 12.72497 -76.74491 37002 ft 580 kts 168°
2026-04-30 22:22 12.64572 -76.72926 37000 ft 580 kts 168°
2026-04-30 22:22 12.56637 -76.71367 37002 ft 580 kts 168°
2026-04-30 22:23 12.48763 -76.69823 37001 ft 580 kts 168°
2026-04-30 22:23 12.40840 -76.68268 37001 ft 580 kts 168°
2026-04-30 22:24 12.32862 -76.66703 37001 ft 580 kts 168°
2026-04-30 22:24 12.24992 -76.65159 37002 ft 580 kts 168°
2026-04-30 22:25 12.17066 -76.63606 37001 ft 580 kts 168°
2026-04-30 22:25 12.09136 -76.62053 37001 ft 580 kts 168°
2026-04-30 22:26 11.97255 -76.59728 37001 ft 580 kts 168°
2026-04-30 22:27 11.89332 -76.58178 37002 ft 580 kts 168°
2026-04-30 22:27 11.77436 -76.55854 37002 ft 580 kts 168°
2026-04-30 22:28 11.65555 -76.53534 37001 ft 580 kts 168°
2026-04-30 22:29 11.49693 -76.50440 37001 ft 580 kts 168°
2026-04-30 22:31 11.21951 -76.45038 37002 ft 580 kts 168°
2026-04-30 22:32 11.02129 -76.41185 37001 ft 580 kts 168°
2026-04-30 22:33 10.82305 -76.37336 37001 ft 580 kts 168°
2026-04-30 22:35 10.62491 -76.33495 37002 ft 580 kts 168°
2026-04-30 22:36 10.42672 -76.29657 37001 ft 580 kts 168°
2026-04-30 22:37 10.26812 -76.26590 37002 ft 580 kts 168°
2026-04-30 22:38 10.10959 -76.23527 37001 ft 580 kts 168°
2026-04-30 22:39 9.99115 -76.21241 37002 ft 580 kts 168°
2026-04-30 22:40 9.75643 -76.16715 37001 ft 580 kts 168°
2026-04-30 22:41 9.55835 -76.12897 37001 ft 580 kts 168°
2026-04-30 22:43 9.32077 -76.08137 37002 ft 580 kts 168°
2026-04-30 22:44 9.16242 -76.04974 37003 ft 580 kts 168°
2026-04-30 22:45 8.92449 -76.00227 37002 ft 581 kts 168°
2026-04-30 22:47 8.68666 -75.95489 37002 ft 580 kts 168°
2026-04-30 22:48 8.52861 -75.92343 37002 ft 581 kts 168°
2026-04-30 22:49 8.29087 -75.87615 37000 ft 580 kts 168°
2026-04-30 22:51 8.05298 -75.82890 36999 ft 581 kts 168°
2026-04-30 22:52 7.93395 -75.80526 37001 ft 581 kts 168°
2026-04-30 22:53 7.77529 -75.77367 36999 ft 581 kts 168°
2026-04-30 22:53 7.65625 -75.74999 37001 ft 581 kts 168°
2026-04-30 22:55 7.45712 -75.71040 37008 ft 585 kts 168°
2026-04-30 22:56 7.29735 -75.67867 36987 ft 588 kts 168°
2026-04-30 22:57 7.09669 -75.63883 36991 ft 588 kts 168°
2026-04-30 22:58 6.93643 -75.60706 36991 ft 588 kts 168°
2026-04-30 22:59 6.69490 -75.55920 37011 ft 591 kts 168°